Year,Month,Day,Hour,Minute,Value (Times are PST for temperature in C)
2018,10,17,00,00,6.20
2018,10,17,00,01,6.20
2018,10,17,00,02,6.20
2018,10,17,00,03,6.20
2018,10,17,00,04,6.20
2018,10,17,00,05,6.20
2018,10,17,00,06,6.20
2018,10,17,00,07,6.10
2018,10,17,00,08,6.10
2018,10,17,00,09,6.10
2018,10,17,00,10,6.10
2018,10,17,00,11,6.10
2018,10,17,00,12,6.10
2018,10,17,00,13,6.00
2018,10,17,00,14,6.00
2018,10,17,00,15,6.00
2018,10,17,00,16,6.00
2018,10,17,00,17,6.00
2018,10,17,00,18,6.00
2018,10,17,00,19,6.00
2018,10,17,00,20,6.00
2018,10,17,00,21,6.00
2018,10,17,00,22,6.00
2018,10,17,00,23,6.00
2018,10,17,00,24,6.00
2018,10,17,00,25,6.00
2018,10,17,00,26,6.00
2018,10,17,00,27,6.00
2018,10,17,00,28,6.00
2018,10,17,00,29,5.90
2018,10,17,00,30,5.90
2018,10,17,00,31,5.90
2018,10,17,00,32,5.90
2018,10,17,00,33,5.90
2018,10,17,00,34,5.90
2018,10,17,00,35,5.90
2018,10,17,00,36,5.90
2018,10,17,00,37,5.90
2018,10,17,00,38,5.90
2018,10,17,00,39,5.90
2018,10,17,00,40,5.90
2018,10,17,00,41,5.90
2018,10,17,00,42,5.90
2018,10,17,00,43,5.90
2018,10,17,00,44,5.90
2018,10,17,00,45,5.90
2018,10,17,00,46,5.90
2018,10,17,00,47,5.80
2018,10,17,00,48,5.80
2018,10,17,00,49,5.80
2018,10,17,00,50,5.80
2018,10,17,00,51,5.70
2018,10,17,00,52,5.70
2018,10,17,00,53,5.70
2018,10,17,00,54,5.70
2018,10,17,00,55,5.70
2018,10,17,00,56,5.70
2018,10,17,00,57,5.70
2018,10,17,00,58,5.70
2018,10,17,00,59,5.60
2018,10,17,01,00,5.60
2018,10,17,01,01,5.60
2018,10,17,01,02,5.50
2018,10,17,01,03,5.50
2018,10,17,01,04,5.40
2018,10,17,01,05,5.30
2018,10,17,01,06,5.30
2018,10,17,01,07,5.30
2018,10,17,01,08,5.20
2018,10,17,01,09,5.20
2018,10,17,01,10,5.20
2018,10,17,01,11,5.20
2018,10,17,01,12,5.20
2018,10,17,01,13,5.20
2018,10,17,01,14,5.10
2018,10,17,01,15,5.10
2018,10,17,01,16,5.10
2018,10,17,01,17,5.20
2018,10,17,01,18,5.20
2018,10,17,01,19,5.20
2018,10,17,01,20,5.20
2018,10,17,01,21,5.20
2018,10,17,01,22,5.20
2018,10,17,01,23,5.20
2018,10,17,01,24,5.30
2018,10,17,01,25,5.30
2018,10,17,01,26,5.20
2018,10,17,01,27,5.20
2018,10,17,01,28,5.20
2018,10,17,01,29,5.20
2018,10,17,01,30,5.20
2018,10,17,01,31,5.20
2018,10,17,01,32,5.20
2018,10,17,01,33,5.10
2018,10,17,01,34,5.10
2018,10,17,01,35,5.10
2018,10,17,01,36,5.00
2018,10,17,01,37,4.90
2018,10,17,01,38,4.90
2018,10,17,01,39,4.90
2018,10,17,01,40,4.80
2018,10,17,01,41,4.80
2018,10,17,01,42,4.80
2018,10,17,01,43,4.80
2018,10,17,01,44,4.80
2018,10,17,01,45,4.80
2018,10,17,01,46,4.80
2018,10,17,01,47,4.80
2018,10,17,01,48,4.80
2018,10,17,01,49,4.80
2018,10,17,01,50,4.80
2018,10,17,01,51,4.80
2018,10,17,01,52,4.80
2018,10,17,01,53,4.70
2018,10,17,01,54,4.70
2018,10,17,01,55,4.70
2018,10,17,01,56,4.70
2018,10,17,01,57,4.70
2018,10,17,01,58,4.70
2018,10,17,01,59,4.70
2018,10,17,02,00,4.70
2018,10,17,02,01,4.80
2018,10,17,02,02,4.80
2018,10,17,02,03,4.80
2018,10,17,02,04,4.90
2018,10,17,02,05,4.90
2018,10,17,02,06,4.90
2018,10,17,02,07,4.90
2018,10,17,02,08,4.90
2018,10,17,02,09,4.90
2018,10,17,02,10,4.90
2018,10,17,02,11,4.90
2018,10,17,02,12,4.90
2018,10,17,02,13,4.80
2018,10,17,02,14,4.80
2018,10,17,02,15,4.80
2018,10,17,02,16,4.80
2018,10,17,02,17,4.80
2018,10,17,02,18,4.80
2018,10,17,02,19,4.80
2018,10,17,02,20,4.80
2018,10,17,02,21,4.80
2018,10,17,02,22,4.90
2018,10,17,02,23,4.90
2018,10,17,02,24,4.90
2018,10,17,02,25,4.90
2018,10,17,02,26,4.90
2018,10,17,02,27,4.90
2018,10,17,02,28,4.90
2018,10,17,02,29,4.80
2018,10,17,02,30,4.80
2018,10,17,02,31,4.80
2018,10,17,02,32,4.80
2018,10,17,02,33,4.70
2018,10,17,02,34,4.70
2018,10,17,02,35,4.70
2018,10,17,02,36,4.60
2018,10,17,02,37,4.60
2018,10,17,02,38,4.60
2018,10,17,02,39,4.60
2018,10,17,02,40,4.60
2018,10,17,02,41,4.60
2018,10,17,02,42,4.50
2018,10,17,02,43,4.50
2018,10,17,02,44,4.50
2018,10,17,02,45,4.50
2018,10,17,02,46,4.50
2018,10,17,02,47,4.50
2018,10,17,02,48,4.40
2018,10,17,02,49,4.50
2018,10,17,02,50,4.50
2018,10,17,02,51,4.50
2018,10,17,02,52,4.50
2018,10,17,02,53,4.50
2018,10,17,02,54,4.40
2018,10,17,02,55,4.40
2018,10,17,02,56,4.40
2018,10,17,02,57,4.30
2018,10,17,02,58,4.30
2018,10,17,02,59,4.30
2018,10,17,03,00,4.30
2018,10,17,03,01,4.30
2018,10,17,03,02,4.30
2018,10,17,03,03,4.30
2018,10,17,03,04,4.30
2018,10,17,03,05,4.30
2018,10,17,03,06,4.30
2018,10,17,03,07,4.30
2018,10,17,03,08,4.30
2018,10,17,03,09,4.30
2018,10,17,03,10,4.30
2018,10,17,03,11,4.30
2018,10,17,03,12,4.30
2018,10,17,03,13,4.30
2018,10,17,03,14,4.20
2018,10,17,03,15,4.20
2018,10,17,03,16,4.20
2018,10,17,03,17,4.20
2018,10,17,03,18,4.20
2018,10,17,03,19,4.20
2018,10,17,03,20,4.20
2018,10,17,03,21,4.10
2018,10,17,03,22,4.10
2018,10,17,03,23,4.10
2018,10,17,03,24,4.10
2018,10,17,03,25,4.10
2018,10,17,03,26,4.10
2018,10,17,03,27,4.10
2018,10,17,03,28,4.10
2018,10,17,03,29,4.10
2018,10,17,03,30,4.10
2018,10,17,03,31,4.10
2018,10,17,03,32,4.10
2018,10,17,03,33,4.10
2018,10,17,03,34,4.10
2018,10,17,03,35,4.10
2018,10,17,03,36,4.10
2018,10,17,03,37,4.10
2018,10,17,03,38,4.20
2018,10,17,03,39,4.20
2018,10,17,03,40,4.20
2018,10,17,03,41,4.20
2018,10,17,03,42,4.20
2018,10,17,03,43,4.20
2018,10,17,03,44,4.20
2018,10,17,03,45,4.20
2018,10,17,03,46,4.20
2018,10,17,03,47,4.20
2018,10,17,03,48,4.20
2018,10,17,03,49,4.20
2018,10,17,03,50,4.20
2018,10,17,03,51,4.20
2018,10,17,03,52,4.10
2018,10,17,03,53,4.10
2018,10,17,03,54,4.10
2018,10,17,03,55,4.00
2018,10,17,03,56,4.00
2018,10,17,03,57,3.90
2018,10,17,03,58,3.90
2018,10,17,03,59,3.90
2018,10,17,04,00,3.80
2018,10,17,04,01,3.80
2018,10,17,04,02,3.80
2018,10,17,04,03,3.80
2018,10,17,04,04,3.80
2018,10,17,04,05,3.80
2018,10,17,04,06,3.80
2018,10,17,04,07,3.80
2018,10,17,04,08,3.80
2018,10,17,04,09,3.80
2018,10,17,04,10,3.80
2018,10,17,04,11,3.80
2018,10,17,04,12,3.90
2018,10,17,04,13,3.90
2018,10,17,04,14,3.90
2018,10,17,04,15,3.90
2018,10,17,04,16,3.90
2018,10,17,04,17,3.90
2018,10,17,04,18,3.90
2018,10,17,04,19,3.90
2018,10,17,04,20,3.90
2018,10,17,04,21,3.90
2018,10,17,04,22,3.90
2018,10,17,04,23,3.90
2018,10,17,04,24,3.90
2018,10,17,04,25,3.90
2018,10,17,04,26,3.90
2018,10,17,04,27,3.90
2018,10,17,04,28,3.90
2018,10,17,04,29,3.80
2018,10,17,04,30,3.80
2018,10,17,04,31,3.80
2018,10,17,04,32,3.80
2018,10,17,04,33,3.80
2018,10,17,04,34,3.80
2018,10,17,04,35,3.80
2018,10,17,04,36,3.70
2018,10,17,04,37,3.70
2018,10,17,04,38,3.70
2018,10,17,04,39,3.70
2018,10,17,04,40,3.70
2018,10,17,04,41,3.60
2018,10,17,04,42,3.60
2018,10,17,04,43,3.60
2018,10,17,04,44,3.60
2018,10,17,04,45,3.60
2018,10,17,04,46,3.60
2018,10,17,04,47,3.60
2018,10,17,04,48,3.60
2018,10,17,04,49,3.60
2018,10,17,04,50,3.60
2018,10,17,04,51,3.60
2018,10,17,04,52,3.70
2018,10,17,04,53,3.60
2018,10,17,04,54,3.60
2018,10,17,04,55,3.60
2018,10,17,04,56,3.60
2018,10,17,04,57,3.60
2018,10,17,04,58,3.60
2018,10,17,04,59,3.60
2018,10,17,05,00,3.50
2018,10,17,05,01,3.50
2018,10,17,05,02,3.50
2018,10,17,05,03,3.40
2018,10,17,05,04,3.40
2018,10,17,05,05,3.40
2018,10,17,05,06,3.40
2018,10,17,05,07,3.40
2018,10,17,05,08,3.40
2018,10,17,05,09,3.40
2018,10,17,05,10,3.40
2018,10,17,05,11,3.40
2018,10,17,05,12,3.40
2018,10,17,05,13,3.30
2018,10,17,05,14,3.30
2018,10,17,05,15,3.30
2018,10,17,05,16,3.30
2018,10,17,05,17,3.30
2018,10,17,05,18,3.30
2018,10,17,05,19,3.30
2018,10,17,05,20,3.20
2018,10,17,05,21,3.20
2018,10,17,05,22,3.20
2018,10,17,05,23,3.20
2018,10,17,05,24,3.20
2018,10,17,05,25,3.20
2018,10,17,05,26,3.20
2018,10,17,05,27,3.20
2018,10,17,05,28,3.20
2018,10,17,05,29,3.20
2018,10,17,05,30,3.30
2018,10,17,05,31,3.30
2018,10,17,05,32,3.30
2018,10,17,05,33,3.40
2018,10,17,05,34,3.40
2018,10,17,05,35,3.40
2018,10,17,05,36,3.50
2018,10,17,05,37,3.50
2018,10,17,05,38,3.50
2018,10,17,05,39,3.50
2018,10,17,05,40,3.50
2018,10,17,05,41,3.50
2018,10,17,05,42,3.40
2018,10,17,05,43,3.40
2018,10,17,05,44,3.40
2018,10,17,05,45,3.40
2018,10,17,05,46,3.40
2018,10,17,05,47,3.40
2018,10,17,05,48,3.40
2018,10,17,05,49,3.40
2018,10,17,05,50,3.40
2018,10,17,05,51,3.40
2018,10,17,05,52,3.40
2018,10,17,05,53,3.40
2018,10,17,05,54,3.40
2018,10,17,05,55,3.40
2018,10,17,05,56,3.30
2018,10,17,05,57,3.30
2018,10,17,05,58,3.30
2018,10,17,05,59,3.30
2018,10,17,06,00,3.20
2018,10,17,06,01,3.20
2018,10,17,06,02,3.20
2018,10,17,06,03,3.10
2018,10,17,06,04,3.10
2018,10,17,06,05,3.10
2018,10,17,06,06,3.10
2018,10,17,06,07,3.10
2018,10,17,06,08,3.00
2018,10,17,06,09,3.00
2018,10,17,06,10,3.00
2018,10,17,06,11,3.00
2018,10,17,06,12,3.00
2018,10,17,06,13,3.00
2018,10,17,06,14,3.00
2018,10,17,06,15,3.00
2018,10,17,06,16,2.90
2018,10,17,06,17,2.90
2018,10,17,06,18,2.90
2018,10,17,06,19,2.90
2018,10,17,06,20,2.90
2018,10,17,06,21,2.90
2018,10,17,06,22,2.90
2018,10,17,06,23,2.90
2018,10,17,06,24,2.90
2018,10,17,06,25,3.00
2018,10,17,06,26,3.00
2018,10,17,06,27,3.00
2018,10,17,06,28,3.00
2018,10,17,06,29,3.00
2018,10,17,06,30,3.00
2018,10,17,06,31,3.00
2018,10,17,06,32,3.00
2018,10,17,06,33,3.00
2018,10,17,06,34,3.00
2018,10,17,06,35,3.10
2018,10,17,06,36,3.10
2018,10,17,06,37,3.20
2018,10,17,06,38,3.20
2018,10,17,06,39,3.20
2018,10,17,06,40,3.30
2018,10,17,06,41,3.30
2018,10,17,06,42,3.30
2018,10,17,06,43,3.30
2018,10,17,06,44,3.20
2018,10,17,06,45,3.20
2018,10,17,06,46,3.20
2018,10,17,06,47,3.10
2018,10,17,06,48,3.10
2018,10,17,06,49,3.00
2018,10,17,06,50,3.00
2018,10,17,06,51,2.90
2018,10,17,06,52,2.90
2018,10,17,06,53,2.90
2018,10,17,06,54,2.90
2018,10,17,06,55,2.90
2018,10,17,06,56,2.90
2018,10,17,06,57,2.90
2018,10,17,06,58,2.90
2018,10,17,06,59,2.90
2018,10,17,07,00,2.90
2018,10,17,07,01,2.90
2018,10,17,07,02,2.90
2018,10,17,07,03,2.90
2018,10,17,07,04,2.90
2018,10,17,07,05,3.00
2018,10,17,07,06,3.00
2018,10,17,07,07,3.10
2018,10,17,07,08,3.10
2018,10,17,07,09,3.10
2018,10,17,07,10,3.10
2018,10,17,07,11,3.10
2018,10,17,07,12,3.00
2018,10,17,07,13,3.00
2018,10,17,07,14,2.90
2018,10,17,07,15,2.90
2018,10,17,07,16,2.90
2018,10,17,07,17,2.90
2018,10,17,07,18,2.80
2018,10,17,07,19,2.80
2018,10,17,07,20,2.80
2018,10,17,07,21,2.80
2018,10,17,07,22,2.80
2018,10,17,07,23,2.70
2018,10,17,07,24,2.70
2018,10,17,07,25,2.70
2018,10,17,07,26,2.70
2018,10,17,07,27,2.70
2018,10,17,07,28,2.70
2018,10,17,07,29,2.70
2018,10,17,07,30,2.80
2018,10,17,07,31,2.80
2018,10,17,07,32,2.80
2018,10,17,07,33,2.80
2018,10,17,07,34,2.80
2018,10,17,07,35,2.80
2018,10,17,07,36,2.80
2018,10,17,07,37,2.80
2018,10,17,07,38,2.90
2018,10,17,07,39,2.90
2018,10,17,07,40,2.90
2018,10,17,07,41,2.90
2018,10,17,07,42,2.90
2018,10,17,07,43,2.90
2018,10,17,07,44,2.90
2018,10,17,07,45,2.90
2018,10,17,07,46,2.90
2018,10,17,07,47,3.00
2018,10,17,07,48,3.00
2018,10,17,07,49,3.00
2018,10,17,07,50,3.10
2018,10,17,07,51,3.10
2018,10,17,07,52,3.00
2018,10,17,07,53,3.00
2018,10,17,07,54,3.00
2018,10,17,07,55,3.00
2018,10,17,07,56,3.00
2018,10,17,07,57,2.90
2018,10,17,07,58,2.90
2018,10,17,07,59,2.90
2018,10,17,08,00,2.90
2018,10,17,08,01,2.90
2018,10,17,08,02,2.90
2018,10,17,08,03,2.80
2018,10,17,08,04,2.80
2018,10,17,08,05,2.80
2018,10,17,08,06,2.80
2018,10,17,08,07,2.80
2018,10,17,08,08,2.80
2018,10,17,08,09,2.90
2018,10,17,08,10,2.90
2018,10,17,08,11,3.00
2018,10,17,08,12,3.10
2018,10,17,08,13,3.10
2018,10,17,08,14,3.10
2018,10,17,08,15,3.20
2018,10,17,08,16,3.20
2018,10,17,08,17,3.20
2018,10,17,08,18,3.20
2018,10,17,08,19,3.20
2018,10,17,08,20,3.20
2018,10,17,08,21,3.20
2018,10,17,08,22,3.20
2018,10,17,08,23,3.20
2018,10,17,08,24,3.20
2018,10,17,08,25,3.20
2018,10,17,08,26,3.20
2018,10,17,08,27,3.30
2018,10,17,08,28,3.30
2018,10,17,08,29,3.30
2018,10,17,08,30,3.30
2018,10,17,08,31,3.30
2018,10,17,08,32,3.40
2018,10,17,08,33,3.40
2018,10,17,08,34,3.40
2018,10,17,08,35,3.50
2018,10,17,08,36,3.50
2018,10,17,08,37,3.60
2018,10,17,08,38,3.60
2018,10,17,08,39,3.70
2018,10,17,08,40,3.70
2018,10,17,08,41,3.70
2018,10,17,08,42,3.80
2018,10,17,08,43,3.80
2018,10,17,08,44,3.90
2018,10,17,08,45,4.00
2018,10,17,08,46,4.00
2018,10,17,08,47,4.10
2018,10,17,08,48,4.10
2018,10,17,08,49,4.20
2018,10,17,08,50,4.20
2018,10,17,08,51,4.30
2018,10,17,08,52,4.30
2018,10,17,08,53,4.40
2018,10,17,08,54,4.50
2018,10,17,08,55,4.60
2018,10,17,08,56,4.70
2018,10,17,08,57,4.80
2018,10,17,08,58,4.80
2018,10,17,08,59,4.90
2018,10,17,09,00,4.90
2018,10,17,09,01,4.90
2018,10,17,09,02,5.00
2018,10,17,09,03,5.10
2018,10,17,09,04,5.10
2018,10,17,09,05,5.10
2018,10,17,09,06,5.20
2018,10,17,09,07,5.20
2018,10,17,09,08,5.20
2018,10,17,09,09,5.20
2018,10,17,09,10,5.20
2018,10,17,09,11,5.20
2018,10,17,09,12,5.20
2018,10,17,09,13,5.20
2018,10,17,09,14,5.20
2018,10,17,09,15,5.30
2018,10,17,09,16,5.30
2018,10,17,09,17,5.30
2018,10,17,09,18,5.30
2018,10,17,09,19,5.40
2018,10,17,09,20,5.40
2018,10,17,09,21,5.40
2018,10,17,09,22,5.50
2018,10,17,09,23,5.50
2018,10,17,09,24,5.60
2018,10,17,09,25,5.60
2018,10,17,09,26,5.70
2018,10,17,09,27,5.70
2018,10,17,09,28,5.80
2018,10,17,09,29,5.80
2018,10,17,09,30,5.80
2018,10,17,09,31,5.90
2018,10,17,09,32,5.90
2018,10,17,09,33,5.90
2018,10,17,09,34,6.00
2018,10,17,09,35,6.00
2018,10,17,09,36,6.10
2018,10,17,09,37,6.10
2018,10,17,09,38,6.20
2018,10,17,09,39,6.20
2018,10,17,09,40,6.30
2018,10,17,09,41,6.30
2018,10,17,09,42,6.40
2018,10,17,09,43,6.50
2018,10,17,09,44,6.60
2018,10,17,09,45,6.70
2018,10,17,09,46,6.80
2018,10,17,09,47,6.80
2018,10,17,09,48,6.90
2018,10,17,09,49,7.00
2018,10,17,09,50,7.10
2018,10,17,09,51,7.10
2018,10,17,09,52,7.20
2018,10,17,09,53,7.20
2018,10,17,09,54,7.30
2018,10,17,09,55,7.30
2018,10,17,09,56,7.30
2018,10,17,09,57,7.40
2018,10,17,09,58,7.40
2018,10,17,09,59,7.50
2018,10,17,10,00,7.50
2018,10,17,10,01,7.60
2018,10,17,10,02,7.70
2018,10,17,10,03,7.70
2018,10,17,10,04,7.70
2018,10,17,10,05,7.80
2018,10,17,10,06,7.90
2018,10,17,10,07,8.00
2018,10,17,10,08,8.00
2018,10,17,10,09,8.10
2018,10,17,10,10,8.20
2018,10,17,10,11,8.20
2018,10,17,10,12,8.30
2018,10,17,10,13,8.40
2018,10,17,10,14,8.40
2018,10,17,10,15,8.50
2018,10,17,10,16,8.60
2018,10,17,10,17,8.70
2018,10,17,10,18,8.70
2018,10,17,10,19,8.80
2018,10,17,10,20,8.80
2018,10,17,10,21,8.90
2018,10,17,10,22,8.90
2018,10,17,10,23,9.00
2018,10,17,10,24,9.10
2018,10,17,10,25,9.20
2018,10,17,10,26,9.20
2018,10,17,10,27,9.30
2018,10,17,10,28,9.30
2018,10,17,10,29,9.40
2018,10,17,10,30,9.40
2018,10,17,10,31,9.50
2018,10,17,10,32,9.60
2018,10,17,10,33,9.70
2018,10,17,10,34,9.70
2018,10,17,10,35,9.80
2018,10,17,10,36,9.90
2018,10,17,10,37,10.00
2018,10,17,10,38,10.10
2018,10,17,10,39,10.20
2018,10,17,10,40,10.30
2018,10,17,10,41,10.40
2018,10,17,10,42,10.50
2018,10,17,10,43,10.50
2018,10,17,10,44,10.60
2018,10,17,10,45,10.70
2018,10,17,10,46,10.80
2018,10,17,10,47,10.90
2018,10,17,10,48,11.00
2018,10,17,10,49,11.10
2018,10,17,10,50,11.20
2018,10,17,10,51,11.30
2018,10,17,10,52,11.50
2018,10,17,10,53,11.60
2018,10,17,10,54,11.70
2018,10,17,10,55,11.70
2018,10,17,10,56,11.80
2018,10,17,10,57,11.90
2018,10,17,10,58,12.00
2018,10,17,10,59,12.10
2018,10,17,11,00,12.20
2018,10,17,11,01,12.30
2018,10,17,11,02,12.40
2018,10,17,11,03,12.50
2018,10,17,11,04,12.60
2018,10,17,11,05,12.70
2018,10,17,11,06,12.80
2018,10,17,11,07,13.00
2018,10,17,11,08,13.10
2018,10,17,11,09,13.20
2018,10,17,11,10,13.20
2018,10,17,11,11,13.30
2018,10,17,11,12,13.40
2018,10,17,11,13,13.40
2018,10,17,11,14,13.50
2018,10,17,11,15,13.60
2018,10,17,11,16,13.60
2018,10,17,11,17,13.70
2018,10,17,11,18,13.80
2018,10,17,11,19,13.90
2018,10,17,11,20,14.00
2018,10,17,11,21,14.10
2018,10,17,11,22,14.20
2018,10,17,11,23,14.30
2018,10,17,11,24,14.30
2018,10,17,11,25,14.40
2018,10,17,11,26,14.40
2018,10,17,11,27,14.50
2018,10,17,11,28,14.60
2018,10,17,11,29,14.60
2018,10,17,11,30,14.70
2018,10,17,11,31,14.70
2018,10,17,11,32,14.70
2018,10,17,11,33,14.80
2018,10,17,11,34,14.80
2018,10,17,11,35,14.90
2018,10,17,11,36,14.90
2018,10,17,11,37,15.00
2018,10,17,11,38,15.10
2018,10,17,11,39,15.10
2018,10,17,11,40,15.20
2018,10,17,11,41,15.20
2018,10,17,11,42,15.30
2018,10,17,11,43,15.30
2018,10,17,11,44,15.40
2018,10,17,11,45,15.50
2018,10,17,11,46,15.60
2018,10,17,11,47,15.70
2018,10,17,11,48,15.80
2018,10,17,11,49,15.90
2018,10,17,11,50,16.00
2018,10,17,11,51,16.10
2018,10,17,11,52,16.20
2018,10,17,11,53,16.40
2018,10,17,11,54,16.50
2018,10,17,11,55,16.60
2018,10,17,11,56,16.70
2018,10,17,11,57,16.70
2018,10,17,11,58,16.80
2018,10,17,11,59,16.80
2018,10,17,12,00,16.90
2018,10,17,12,01,17.00
2018,10,17,12,02,17.10
2018,10,17,12,03,17.20
2018,10,17,12,04,17.20
2018,10,17,12,05,17.30
2018,10,17,12,06,17.40
2018,10,17,12,07,17.40
2018,10,17,12,08,17.50
2018,10,17,12,09,17.50
2018,10,17,12,10,17.50
2018,10,17,12,11,17.50
2018,10,17,12,12,17.50
2018,10,17,12,13,17.60
2018,10,17,12,14,17.70
2018,10,17,12,15,17.70
2018,10,17,12,16,17.80
2018,10,17,12,17,17.90
2018,10,17,12,18,17.90
2018,10,17,12,19,18.00
2018,10,17,12,20,18.10
2018,10,17,12,21,18.20
2018,10,17,12,22,18.20
2018,10,17,12,23,18.30
2018,10,17,12,24,18.40
2018,10,17,12,25,18.50
2018,10,17,12,26,18.50
2018,10,17,12,27,18.60
2018,10,17,12,28,18.60
2018,10,17,12,29,18.60
2018,10,17,12,30,18.60
2018,10,17,12,31,18.60
2018,10,17,12,32,18.60
2018,10,17,12,33,18.50
2018,10,17,12,34,18.50
2018,10,17,12,35,18.40
2018,10,17,12,36,18.40
2018,10,17,12,37,18.40
2018,10,17,12,38,18.50
2018,10,17,12,39,18.60
2018,10,17,12,40,18.60
2018,10,17,12,41,18.70
2018,10,17,12,42,18.80
2018,10,17,12,43,18.90
2018,10,17,12,44,19.00
2018,10,17,12,45,19.10
2018,10,17,12,46,19.20
2018,10,17,12,47,19.30
2018,10,17,12,48,19.30
2018,10,17,12,49,19.30
2018,10,17,12,50,19.30
2018,10,17,12,51,19.30
2018,10,17,12,52,19.30
2018,10,17,12,53,19.30
2018,10,17,12,54,19.40
2018,10,17,12,55,19.40
2018,10,17,12,56,19.40
2018,10,17,12,57,19.40
2018,10,17,12,58,19.40
2018,10,17,12,59,19.50
2018,10,17,13,00,19.50
2018,10,17,13,01,19.60
2018,10,17,13,02,19.60
2018,10,17,13,03,19.70
2018,10,17,13,04,19.80
2018,10,17,13,05,19.90
2018,10,17,13,06,20.00
2018,10,17,13,07,20.00
2018,10,17,13,08,20.10
2018,10,17,13,09,20.10
2018,10,17,13,10,20.10
2018,10,17,13,11,20.10
2018,10,17,13,12,20.10
2018,10,17,13,13,20.00
2018,10,17,13,14,20.00
2018,10,17,13,15,20.10
2018,10,17,13,16,20.10
2018,10,17,13,17,20.10
2018,10,17,13,18,20.10
2018,10,17,13,19,20.10
2018,10,17,13,20,20.10
2018,10,17,13,21,20.10
2018,10,17,13,22,20.10
2018,10,17,13,23,20.10
2018,10,17,13,24,20.10
2018,10,17,13,25,20.10
2018,10,17,13,26,20.20
2018,10,17,13,27,20.20
2018,10,17,13,28,20.30
2018,10,17,13,29,20.30
2018,10,17,13,30,20.30
2018,10,17,13,31,20.30
2018,10,17,13,32,20.30
2018,10,17,13,33,20.30
2018,10,17,13,34,20.30
2018,10,17,13,35,20.30
2018,10,17,13,36,20.30
2018,10,17,13,37,20.30
2018,10,17,13,38,20.30
2018,10,17,13,39,20.30
2018,10,17,13,40,20.30
2018,10,17,13,41,20.40
2018,10,17,13,42,20.40
2018,10,17,13,43,20.40
2018,10,17,13,44,20.40
2018,10,17,13,45,20.40
2018,10,17,13,46,20.40
2018,10,17,13,47,20.30
2018,10,17,13,48,20.30
2018,10,17,13,49,20.30
2018,10,17,13,50,20.20
2018,10,17,13,51,20.30
2018,10,17,13,52,20.30
2018,10,17,13,53,20.30
2018,10,17,13,54,20.30
2018,10,17,13,55,20.30
2018,10,17,13,56,20.20
2018,10,17,13,57,20.20
2018,10,17,13,58,20.20
2018,10,17,13,59,20.20
2018,10,17,14,00,20.20
2018,10,17,14,01,20.10
2018,10,17,14,02,20.00
2018,10,17,14,03,20.00
2018,10,17,14,04,20.00
2018,10,17,14,05,19.90
2018,10,17,14,06,19.90
2018,10,17,14,07,19.90
2018,10,17,14,08,19.90
2018,10,17,14,09,19.90
2018,10,17,14,10,19.90
2018,10,17,14,11,19.90
2018,10,17,14,12,19.90
2018,10,17,14,13,19.90
2018,10,17,14,14,19.90
2018,10,17,14,15,19.90
2018,10,17,14,16,19.90
2018,10,17,14,17,19.90
2018,10,17,14,18,19.90
2018,10,17,14,19,19.90
2018,10,17,14,20,19.90
2018,10,17,14,21,19.90
2018,10,17,14,22,19.90
2018,10,17,14,23,19.90
2018,10,17,14,24,19.90
2018,10,17,14,25,19.90
2018,10,17,14,26,19.90
2018,10,17,14,27,20.00
2018,10,17,14,28,20.00
2018,10,17,14,29,20.00
2018,10,17,14,30,20.10
2018,10,17,14,31,20.10
2018,10,17,14,32,20.10
2018,10,17,14,33,20.20
2018,10,17,14,34,20.20
2018,10,17,14,35,20.20
2018,10,17,14,36,20.20
2018,10,17,14,37,20.20
2018,10,17,14,38,20.30
2018,10,17,14,39,20.30
2018,10,17,14,40,20.30
2018,10,17,14,41,20.20
2018,10,17,14,42,20.20
2018,10,17,14,43,20.30
2018,10,17,14,44,20.30
2018,10,17,14,45,20.30
2018,10,17,14,46,20.30
2018,10,17,14,47,20.30
2018,10,17,14,48,20.30
2018,10,17,14,49,20.20
2018,10,17,14,50,20.20
2018,10,17,14,51,20.20
2018,10,17,14,52,20.10
2018,10,17,14,53,20.10
2018,10,17,14,54,20.10
2018,10,17,14,55,20.10
2018,10,17,14,56,20.20
2018,10,17,14,57,20.20
2018,10,17,14,58,20.20
2018,10,17,14,59,20.30
2018,10,17,15,00,20.30
2018,10,17,15,01,20.30
2018,10,17,15,02,20.30
2018,10,17,15,03,20.30
2018,10,17,15,04,20.30
2018,10,17,15,05,20.30
2018,10,17,15,06,20.30
2018,10,17,15,07,20.30
2018,10,17,15,08,20.30
2018,10,17,15,09,20.40
2018,10,17,15,10,20.40
2018,10,17,15,11,20.50
2018,10,17,15,12,20.50
2018,10,17,15,13,20.50
2018,10,17,15,14,20.50
2018,10,17,15,15,20.50
2018,10,17,15,16,20.50
2018,10,17,15,17,20.50
2018,10,17,15,18,20.50
2018,10,17,15,19,20.50
2018,10,17,15,20,20.50
2018,10,17,15,21,20.50
2018,10,17,15,22,20.60
2018,10,17,15,23,20.60
2018,10,17,15,24,20.60
2018,10,17,15,25,20.50
2018,10,17,15,26,20.40
2018,10,17,15,27,20.40
2018,10,17,15,28,20.40
2018,10,17,15,29,20.50
2018,10,17,15,30,20.50
2018,10,17,15,31,20.60
2018,10,17,15,32,20.60
2018,10,17,15,33,20.60
2018,10,17,15,34,20.60
2018,10,17,15,35,20.60
2018,10,17,15,36,20.60
2018,10,17,15,37,20.50
2018,10,17,15,38,20.50
2018,10,17,15,39,20.50
2018,10,17,15,40,20.50
2018,10,17,15,41,20.50
2018,10,17,15,42,20.50
2018,10,17,15,43,20.50
2018,10,17,15,44,20.50
2018,10,17,15,45,20.50
2018,10,17,15,46,20.50
2018,10,17,15,47,20.60
2018,10,17,15,48,20.60
2018,10,17,15,49,20.60
2018,10,17,15,50,20.60
2018,10,17,15,51,20.60
2018,10,17,15,52,20.60
2018,10,17,15,53,20.60
2018,10,17,15,54,20.60
2018,10,17,15,55,20.50
2018,10,17,15,56,20.50
2018,10,17,15,57,20.40
2018,10,17,15,58,20.50
2018,10,17,15,59,20.50
2018,10,17,16,00,20.40
2018,10,17,16,01,20.40
2018,10,17,16,02,20.30
2018,10,17,16,03,20.30
2018,10,17,16,04,20.20
2018,10,17,16,05,20.20
2018,10,17,16,06,20.20
2018,10,17,16,07,20.20
2018,10,17,16,08,20.30
2018,10,17,16,09,20.40
2018,10,17,16,10,20.40
2018,10,17,16,11,20.50
2018,10,17,16,12,20.60
2018,10,17,16,13,20.70
2018,10,17,16,14,20.80
2018,10,17,16,15,20.80
2018,10,17,16,16,20.80
2018,10,17,16,17,20.80
2018,10,17,16,18,20.70
2018,10,17,16,19,20.70
2018,10,17,16,20,20.60
2018,10,17,16,21,20.50
2018,10,17,16,22,20.40
2018,10,17,16,23,20.40
2018,10,17,16,24,20.40
2018,10,17,16,25,20.40
2018,10,17,16,26,20.30
2018,10,17,16,27,20.30
2018,10,17,16,28,20.30
2018,10,17,16,29,20.30
2018,10,17,16,30,20.30
2018,10,17,16,31,20.30
2018,10,17,16,32,20.30
2018,10,17,16,33,20.30
2018,10,17,16,34,20.30
2018,10,17,16,35,20.20
2018,10,17,16,36,20.20
2018,10,17,16,37,20.10
2018,10,17,16,38,20.10
2018,10,17,16,39,20.00
2018,10,17,16,40,20.00
2018,10,17,16,41,19.90
2018,10,17,16,42,19.90
2018,10,17,16,43,19.80
2018,10,17,16,44,19.80
2018,10,17,16,45,19.80
2018,10,17,16,46,19.70
2018,10,17,16,47,19.70
2018,10,17,16,48,19.70
2018,10,17,16,49,19.60
2018,10,17,16,50,19.60
2018,10,17,16,51,19.60
2018,10,17,16,52,19.50
2018,10,17,16,53,19.50
2018,10,17,16,54,19.50
2018,10,17,16,55,19.40
2018,10,17,16,56,19.40
2018,10,17,16,57,19.40
2018,10,17,16,58,19.30
2018,10,17,16,59,19.30
2018,10,17,17,00,19.30
2018,10,17,17,01,19.30
2018,10,17,17,02,19.30
2018,10,17,17,03,19.20
2018,10,17,17,04,19.20
2018,10,17,17,05,19.30
2018,10,17,17,06,19.30
2018,10,17,17,07,19.20
2018,10,17,17,08,19.20
2018,10,17,17,09,19.20
2018,10,17,17,10,19.20
2018,10,17,17,11,19.20
2018,10,17,17,12,19.10
2018,10,17,17,13,19.00
2018,10,17,17,14,19.00
2018,10,17,17,15,18.90
2018,10,17,17,16,18.80
2018,10,17,17,17,18.80
2018,10,17,17,18,18.70
2018,10,17,17,19,18.70
2018,10,17,17,20,18.70
2018,10,17,17,21,18.60
2018,10,17,17,22,18.60
2018,10,17,17,23,18.60
2018,10,17,17,24,18.60
2018,10,17,17,25,18.60
2018,10,17,17,26,18.50
2018,10,17,17,27,18.50
2018,10,17,17,28,18.50
2018,10,17,17,29,18.40
2018,10,17,17,30,18.40
2018,10,17,17,31,18.40
2018,10,17,17,32,18.30
2018,10,17,17,33,18.30
2018,10,17,17,34,18.30
2018,10,17,17,35,18.30
2018,10,17,17,36,18.30
2018,10,17,17,37,18.30
2018,10,17,17,38,18.30
2018,10,17,17,39,18.30
2018,10,17,17,40,18.30
2018,10,17,17,41,18.30
2018,10,17,17,42,18.20
2018,10,17,17,43,18.20
2018,10,17,17,44,18.20
2018,10,17,17,45,18.10
2018,10,17,17,46,18.10
2018,10,17,17,47,18.10